Time,TemperatureF,DewpointF,PressureIn,WindDirection,WindDirectionDegrees,WindSpeedMPH,WindSpeedGustMPH,Humidity,HourlyPrecipIn,Conditions,Clouds,dailyrainin,SoftwareType,DateUTC
2013-02-08 00:04:00,37.6,29.7,30.47,SE,141,0.0,0.0,73,0.00,,,0.00,Wunderground v.1.15,2013-02-08 07:04:00,
2013-02-08 00:10:00,37.4,29.5,30.47,SSE,160,0.0,0.0,73,0.00,,,0.00,Wunderground v.1.15,2013-02-08 07:10:00,
2013-02-08 00:20:00,37.3,29.8,30.47,SSE,160,1.0,1.0,74,0.00,,,0.00,Wunderground v.1.15,2013-02-08 07:20:00,
2013-02-08 00:25:00,37.2,29.7,30.46,SE,139,1.0,1.0,74,0.00,,,0.00,Wunderground v.1.15,2013-02-08 07:25:00,
2013-02-08 00:35:00,37.2,30.0,30.46,SSE,155,1.0,2.0,75,0.00,,,0.00,Wunderground v.1.15,2013-02-08 07:35:00,
2013-02-08 00:40:00,37.1,29.9,30.45,South,181,1.0,2.0,75,0.00,,,0.00,Wunderground v.1.15,2013-02-08 07:40:00,
2013-02-08 00:50:00,37.5,30.3,30.45,SSE,158,1.0,1.0,75,0.00,,,0.00,Wunderground v.1.15,2013-02-08 07:50:00,
2013-02-08 00:55:00,37.6,30.4,30.45,SE,135,1.0,1.0,75,0.00,,,0.00,Wunderground v.1.15,2013-02-08 07:55:00,
2013-02-08 01:05:00,37.5,30.3,30.45,SE,146,1.0,1.0,75,0.00,,,0.00,Wunderground v.1.15,2013-02-08 08:05:00,
2013-02-08 01:10:00,37.5,30.3,30.44,ESE,118,1.0,1.0,75,0.00,,,0.00,Wunderground v.1.15,2013-02-08 08:10:00,
2013-02-08 01:20:00,37.1,30.2,30.44,South,170,1.0,1.0,76,0.00,,,0.00,Wunderground v.1.15,2013-02-08 08:20:00,
2013-02-08 01:25:00,37.0,30.5,30.44,South,190,1.0,1.0,77,0.00,,,0.00,Wunderground v.1.15,2013-02-08 08:25:00,
2013-02-08 01:35:00,36.9,30.4,30.43,SSW,198,0.0,2.0,77,0.00,,,0.00,Wunderground v.1.15,2013-02-08 08:35:00,
2013-02-08 01:40:00,37.0,30.5,30.43,SSE,165,1.0,1.0,77,0.00,,,0.00,Wunderground v.1.15,2013-02-08 08:40:00,
2013-02-08 01:49:00,36.7,30.5,30.43,SSE,153,1.0,1.0,78,0.00,,,0.00,Wunderground v.1.15,2013-02-08 08:49:00,
2013-02-08 01:55:00,36.6,30.4,30.43,SSW,197,1.0,2.0,78,0.00,,,0.00,Wunderground v.1.15,2013-02-08 08:55:00,
2013-02-08 02:05:00,36.5,30.3,30.42,South,187,1.0,1.0,78,0.00,,,0.00,Wunderground v.1.15,2013-02-08 09:05:00,
2013-02-08 02:10:00,36.3,30.4,30.42,SSE,153,1.0,1.0,79,0.00,,,0.00,Wunderground v.1.15,2013-02-08 09:10:00,
2013-02-08 02:20:00,36.2,30.6,30.41,SSW,208,1.0,2.0,80,0.00,,,0.00,Wunderground v.1.15,2013-02-08 09:20:00,
2013-02-08 02:25:00,36.4,30.8,30.41,SE,139,1.0,3.0,80,0.00,,,0.00,Wunderground v.1.15,2013-02-08 09:25:00,
2013-02-08 02:35:00,36.5,30.6,30.40,SSE,158,2.0,2.0,79,0.00,,,0.00,Wunderground v.1.15,2013-02-08 09:35:00,
2013-02-08 02:40:00,36.6,30.7,30.39,South,187,2.0,2.0,79,0.00,,,0.00,Wunderground v.1.15,2013-02-08 09:40:00,
2013-02-08 02:50:00,36.8,31.2,30.39,SSW,212,2.0,2.0,80,0.00,,,0.00,Wunderground v.1.15,2013-02-08 09:50:00,
2013-02-08 02:55:00,36.9,31.0,30.38,SSW,198,2.0,2.0,79,0.00,,,0.00,Wunderground v.1.15,2013-02-08 09:55:00,
2013-02-08 03:05:00,36.9,31.3,30.38,SW,214,2.0,3.0,80,0.00,,,0.00,Wunderground v.1.15,2013-02-08 10:05:00,
2013-02-08 03:10:00,36.8,31.2,30.38,SW,224,2.0,2.0,80,0.00,,,0.00,Wunderground v.1.15,2013-02-08 10:10:00,
2013-02-08 03:20:00,36.6,31.0,30.37,SSE,156,3.0,3.0,80,0.00,,,0.00,Wunderground v.1.15,2013-02-08 10:20:00,
2013-02-08 03:25:00,36.4,31.1,30.36,South,169,2.0,3.0,81,0.00,,,0.00,Wunderground v.1.15,2013-02-08 10:25:00,
2013-02-08 03:35:00,36.0,30.7,30.35,SSW,205,2.0,3.0,81,0.00,,,0.00,Wunderground v.1.15,2013-02-08 10:35:00,
2013-02-08 03:40:00,35.7,30.4,30.35,SE,124,2.0,2.0,81,0.00,,,0.00,Wunderground v.1.15,2013-02-08 10:40:00,
2013-02-08 03:50:00,35.3,30.4,30.34,SSW,194,2.0,2.0,82,0.00,,,0.00,Wunderground v.1.15,2013-02-08 10:50:00,
2013-02-08 03:55:00,35.4,30.8,30.34,SSW,200,2.0,3.0,83,0.00,,,0.00,Wunderground v.1.15,2013-02-08 10:55:00,
2013-02-08 04:05:00,35.6,30.9,30.34,SSW,200,2.0,2.0,83,0.00,,,0.00,Wunderground v.1.15,2013-02-08 11:05:00,
2013-02-08 04:10:00,35.8,31.1,30.33,South,185,3.0,3.0,83,0.00,,,0.00,Wunderground v.1.15,2013-02-08 11:10:00,
2013-02-08 04:20:00,36.1,31.4,30.33,SW,231,3.0,3.0,83,0.00,,,0.00,Wunderground v.1.15,2013-02-08 11:20:00,
2013-02-08 04:25:00,36.4,31.7,30.33,SSW,193,4.0,4.0,83,0.00,,,0.00,Wunderground v.1.15,2013-02-08 11:25:00,
2013-02-08 04:35:00,36.9,31.9,30.32,SW,225,5.0,5.0,82,0.00,,,0.00,Wunderground v.1.15,2013-02-08 11:35:00,
2013-02-08 04:40:00,37.1,32.1,30.32,SSE,151,5.0,5.0,82,0.00,,,0.00,Wunderground v.1.15,2013-02-08 11:40:00,
2013-02-08 04:50:00,37.0,32.0,30.32,South,173,5.0,5.0,82,0.00,,,0.00,Wunderground v.1.15,2013-02-08 11:50:00,
2013-02-08 04:55:00,36.9,31.9,30.32,SW,215,5.0,7.0,82,0.00,,,0.00,Wunderground v.1.15,2013-02-08 11:55:00,
2013-02-08 05:05:00,36.9,31.9,30.32,SSW,201,5.0,5.0,82,0.00,,,0.00,Wunderground v.1.15,2013-02-08 12:05:00,
2013-02-08 05:10:00,37.0,32.0,30.32,SW,224,5.0,7.0,82,0.00,,,0.00,Wunderground v.1.15,2013-02-08 12:10:00,
2013-02-08 05:20:00,36.7,31.7,30.32,SW,218,5.0,7.0,82,0.00,,,0.00,Wunderground v.1.15,2013-02-08 12:20:00,
2013-02-08 05:25:00,36.5,31.5,30.32,SW,214,4.0,7.0,82,0.00,,,0.00,Wunderground v.1.15,2013-02-08 12:25:00,
2013-02-08 05:35:00,36.3,31.6,30.32,South,170,5.0,6.0,83,0.00,,,0.00,Wunderground v.1.15,2013-02-08 12:35:00,
2013-02-08 05:40:00,36.2,31.5,30.32,South,181,4.0,4.0,83,0.00,,,0.00,Wunderground v.1.15,2013-02-08 12:40:00,
2013-02-08 05:50:00,36.0,31.6,30.32,South,174,4.0,4.0,84,0.00,,,0.00,Wunderground v.1.15,2013-02-08 12:50:00,
2013-02-08 05:55:00,36.0,31.6,30.32,South,191,3.0,6.0,84,0.00,,,0.00,Wunderground v.1.15,2013-02-08 12:55:00,
2013-02-08 06:05:00,35.9,31.5,30.31,South,172,3.0,3.0,84,0.00,,,0.00,Wunderground v.1.15,2013-02-08 13:05:00,
2013-02-08 06:10:00,35.6,31.2,30.30,SW,229,2.0,2.0,84,0.00,,,0.00,Wunderground v.1.15,2013-02-08 13:10:00,
2013-02-08 06:19:00,35.2,31.1,30.30,South,181,1.0,2.0,85,0.00,,,0.00,Wunderground v.1.15,2013-02-08 13:19:00,
2013-02-08 06:25:00,35.1,31.0,30.30,SSW,211,1.0,2.0,85,0.00,,,0.00,Wunderground v.1.15,2013-02-08 13:25:00,
2013-02-08 06:35:00,35.1,31.3,30.30,South,187,0.0,2.0,86,0.00,,,0.00,Wunderground v.1.15,2013-02-08 13:35:00,
2013-02-08 06:40:00,35.5,31.7,30.30,SSE,153,1.0,2.0,86,0.00,,,0.00,Wunderground v.1.15,2013-02-08 13:40:00,
2013-02-08 06:50:00,36.5,32.1,30.30,SW,225,1.0,3.0,84,0.00,,,0.00,Wunderground v.1.15,2013-02-08 13:50:00,
2013-02-08 06:55:00,36.9,32.2,30.30,SSW,198,1.0,3.0,83,0.00,,,0.00,Wunderground v.1.15,2013-02-08 13:55:00,
2013-02-08 07:05:00,37.1,32.1,30.30,SW,232,2.0,2.0,82,0.00,,,0.00,Wunderground v.1.15,2013-02-08 14:05:00,
2013-02-08 07:10:00,37.4,32.4,30.30,SW,221,2.0,3.0,82,0.00,,,0.00,Wunderground v.1.15,2013-02-08 14:10:00,
2013-02-08 07:20:00,38.1,32.8,30.29,SSW,206,4.0,9.0,81,0.00,,,0.00,Wunderground v.1.15,2013-02-08 14:20:00,
2013-02-08 07:25:00,38.5,32.9,30.29,SSW,210,6.0,9.0,80,0.00,,,0.00,Wunderground v.1.15,2013-02-08 14:25:00,
2013-02-08 07:35:00,39.0,32.7,30.29,South,188,6.0,7.0,78,0.00,,,0.00,Wunderground v.1.15,2013-02-08 14:35:00,
2013-02-08 07:40:00,39.2,32.9,30.29,SW,217,6.0,8.0,78,0.00,,,0.00,Wunderground v.1.15,2013-02-08 14:40:00,
2013-02-08 07:50:00,39.5,32.9,30.29,SSW,202,7.0,7.0,77,0.00,,,0.00,Wunderground v.1.15,2013-02-08 14:50:00,
2013-02-08 07:55:00,39.6,33.0,30.28,WSW,238,7.0,7.0,77,0.00,,,0.00,Wunderground v.1.15,2013-02-08 14:55:00,
2013-02-08 08:05:00,39.8,33.2,30.28,SE,146,7.0,11.0,77,0.00,,,0.00,Wunderground v.1.15,2013-02-08 15:05:00,
2013-02-08 08:10:00,40.1,33.1,30.28,SW,219,7.0,8.0,76,0.00,,,0.00,Wunderground v.1.15,2013-02-08 15:10:00,
2013-02-08 08:20:00,40.1,33.1,30.28,SSW,197,7.0,7.0,76,0.00,,,0.00,Wunderground v.1.15,2013-02-08 15:20:00,
2013-02-08 08:25:00,40.1,33.1,30.28,South,191,6.0,9.0,76,0.00,,,0.00,Wunderground v.1.15,2013-02-08 15:25:00,
2013-02-08 08:34:00,41.2,33.9,30.28,South,186,7.0,11.0,75,0.00,,,0.00,Wunderground v.1.15,2013-02-08 15:34:00,
2013-02-08 08:40:00,41.6,33.9,30.28,SW,228,8.0,8.0,74,0.00,,,0.00,Wunderground v.1.15,2013-02-08 15:40:00,
2013-02-08 08:50:00,42.5,34.1,30.28,SW,231,9.0,20.0,72,0.00,,,0.00,Wunderground v.1.15,2013-02-08 15:50:00,
2013-02-08 08:55:00,42.7,33.9,30.27,SSW,204,9.0,20.0,71,0.00,,,0.00,Wunderground v.1.15,2013-02-08 15:55:00,
2013-02-08 09:05:00,42.7,33.6,30.27,South,183,10.0,10.0,70,0.00,,,0.00,Wunderground v.1.15,2013-02-08 16:05:00,
2013-02-08 09:10:00,42.7,33.2,30.27,South,180,10.0,10.0,69,0.00,,,0.00,Wunderground v.1.15,2013-02-08 16:10:00,
2013-02-08 09:20:00,43.1,31.7,30.27,SW,224,10.0,10.0,64,0.00,,,0.00,Wunderground v.1.15,2013-02-08 16:20:00,
2013-02-08 09:25:00,43.3,31.9,30.27,SSE,160,11.0,11.0,64,0.00,,,0.00,Wunderground v.1.15,2013-02-08 16:25:00,
2013-02-08 09:35:00,43.8,30.4,30.26,NW,319,11.0,11.0,59,0.00,,,0.00,Wunderground v.1.15,2013-02-08 16:35:00,
2013-02-08 09:40:00,43.8,30.4,30.27,SSW,201,11.0,11.0,59,0.00,,,0.00,Wunderground v.1.15,2013-02-08 16:40:00,
2013-02-08 09:50:00,43.8,30.4,30.26,SSE,165,12.0,12.0,59,0.00,,,0.00,Wunderground v.1.15,2013-02-08 16:50:00,
2013-02-08 09:55:00,44.3,30.9,30.26,SSW,205,11.0,16.0,59,0.00,,,0.00,Wunderground v.1.15,2013-02-08 16:55:00,
2013-02-08 10:00:00,44.1,30.7,30.26,SW,215,9.0,9.0,59,0.00,,,0.00,Wunderground v.1.15,2013-02-08 17:00:00,
2013-02-08 10:10:00,43.5,30.5,30.26,WSW,245,9.0,9.0,60,0.00,,,0.00,Wunderground v.1.15,2013-02-08 17:10:00,
2013-02-08 10:20:00,42.7,28.9,30.26,NE,41,8.0,8.0,58,0.00,,,0.00,Wunderground v.1.15,2013-02-08 17:20:00,
2013-02-08 10:25:00,42.9,29.1,30.26,WSW,253,9.0,9.0,58,0.00,,,0.00,Wunderground v.1.15,2013-02-08 17:25:00,
2013-02-08 10:35:00,44.3,29.1,30.26,SW,228,12.0,17.0,55,0.00,,,0.00,Wunderground v.1.15,2013-02-08 17:35:00,
2013-02-08 10:40:00,44.3,28.7,30.26,SW,229,12.0,12.0,54,0.00,,,0.00,Wunderground v.1.15,2013-02-08 17:40:00,
2013-02-08 10:50:00,45.1,29.0,30.26,WSW,240,10.0,16.0,53,0.00,,,0.00,Wunderground v.1.15,2013-02-08 17:50:00,
2013-02-08 10:55:00,44.7,28.6,30.26,WSW,245,11.0,16.0,53,0.00,,,0.00,Wunderground v.1.15,2013-02-08 17:55:00,
2013-02-08 11:05:00,44.0,28.0,30.27,SW,219,13.0,15.0,53,0.00,,,0.00,Wunderground v.1.15,2013-02-08 18:05:00,
2013-02-08 11:10:00,43.8,27.8,30.27,SW,229,13.0,25.0,53,0.00,,,0.00,Wunderground v.1.15,2013-02-08 18:10:00,
2013-02-08 11:20:00,44.5,28.0,30.26,SW,234,12.0,16.0,52,0.00,,,0.00,Wunderground v.1.15,2013-02-08 18:20:00,
2013-02-08 11:25:00,45.5,27.9,30.26,SW,229,11.0,16.0,50,0.00,,,0.00,Wunderground v.1.15,2013-02-08 18:25:00,
2013-02-08 11:35:00,46.7,27.5,30.26,South,172,13.0,18.0,47,0.00,,,0.00,Wunderground v.1.15,2013-02-08 18:35:00,
2013-02-08 11:40:00,46.6,26.4,30.26,SSW,195,14.0,14.0,45,0.00,,,0.00,Wunderground v.1.15,2013-02-08 18:40:00,
2013-02-08 11:50:00,46.7,25.4,30.26,SW,225,13.0,17.0,43,0.00,,,0.00,Wunderground v.1.15,2013-02-08 18:50:00,
2013-02-08 11:55:00,46.3,24.4,30.25,SW,218,13.0,17.0,42,0.00,,,0.00,Wunderground v.1.15,2013-02-08 18:55:00,
2013-02-08 12:05:00,45.3,21.8,30.24,WNW,282,11.0,12.0,39,0.00,,,0.00,Wunderground v.1.15,2013-02-08 19:05:00,
2013-02-08 12:10:00,46.2,23.2,30.25,WNW,299,10.0,11.0,40,0.00,,,0.00,Wunderground v.1.15,2013-02-08 19:10:00,
2013-02-08 12:20:00,46.5,20.9,30.24,SSW,197,13.0,15.0,36,0.00,,,0.00,Wunderground v.1.15,2013-02-08 19:20:00,
2013-02-08 12:25:00,46.4,20.2,30.24,South,180,14.0,15.0,35,0.00,,,0.00,Wunderground v.1.15,2013-02-08 19:25:00,
2013-02-08 12:35:00,46.3,19.4,30.24,South,190,15.0,15.0,34,0.00,,,0.00,Wunderground v.1.15,2013-02-08 19:35:00,
2013-02-08 12:40:00,46.7,19.1,30.23,SSW,195,14.0,14.0,33,0.00,,,0.00,Wunderground v.1.15,2013-02-08 19:40:00,
2013-02-08 12:50:00,46.8,20.6,30.23,South,191,12.0,12.0,35,0.00,,,0.00,Wunderground v.1.15,2013-02-08 19:50:00,
2013-02-08 12:55:00,46.7,16.9,30.23,WNW,288,11.0,13.0,30,0.00,,,0.00,Wunderground v.1.15,2013-02-08 19:55:00,
2013-02-08 13:05:00,46.4,14.2,30.23,West,259,11.0,18.0,27,0.00,,,0.00,Wunderground v.1.15,2013-02-08 20:05:00,
2013-02-08 13:10:00,46.3,14.1,30.23,SW,219,12.0,12.0,27,0.00,,,0.00,Wunderground v.1.15,2013-02-08 20:10:00,
2013-02-08 13:20:00,46.3,15.7,30.23,NW,308,10.0,10.0,29,0.00,,,0.00,Wunderground v.1.15,2013-02-08 20:20:00,
2013-02-08 13:25:00,46.3,15.7,30.23,SSW,213,10.0,10.0,29,0.00,,,0.00,Wunderground v.1.15,2013-02-08 20:25:00,
2013-02-08 13:30:00,46.3,15.7,30.23,SSW,198,10.0,10.0,29,0.00,,,0.00,Wunderground v.1.15,2013-02-08 20:30:00,
2013-02-08 13:40:00,46.0,14.7,30.23,SW,214,11.0,13.0,28,0.00,,,0.00,Wunderground v.1.15,2013-02-08 20:40:00,
2013-02-08 13:50:00,46.0,14.7,30.23,WNW,291,12.0,19.0,28,0.00,,,0.00,Wunderground v.1.15,2013-02-08 20:50:00,
2013-02-08 13:55:00,45.7,13.6,30.23,West,266,14.0,19.0,27,0.00,,,0.00,Wunderground v.1.15,2013-02-08 20:55:00,
2013-02-08 14:05:00,46.0,12.1,30.23,NW,314,12.0,16.0,25,0.00,,,0.00,Wunderground v.1.15,2013-02-08 21:05:00,
2013-02-08 14:10:00,45.7,11.8,30.23,SW,215,12.0,17.0,25,0.00,,,0.00,Wunderground v.1.15,2013-02-08 21:10:00,
2013-02-08 14:20:00,45.7,10.0,30.23,SW,222,12.0,12.0,23,0.00,,,0.00,Wunderground v.1.15,2013-02-08 21:20:00,
2013-02-08 14:25:00,45.6,11.7,30.22,SW,226,11.0,12.0,25,0.00,,,0.00,Wunderground v.1.15,2013-02-08 21:25:00,
2013-02-08 14:30:00,46.1,12.2,30.22,SSW,198,11.0,11.0,25,0.00,,,0.00,Wunderground v.1.15,2013-02-08 21:30:00,
2013-02-08 14:35:00,45.8,12.8,30.22,SW,219,12.0,16.0,26,0.00,,,0.00,Wunderground v.1.15,2013-02-08 21:35:00,
2013-02-08 14:40:00,45.9,13.7,30.22,SW,228,13.0,13.0,27,0.00,,,0.00,Wunderground v.1.15,2013-02-08 21:40:00,
2013-02-08 14:50:00,45.9,12.0,30.22,WNW,291,10.0,11.0,25,0.00,,,0.00,Wunderground v.1.15,2013-02-08 21:50:00,
2013-02-08 14:55:00,46.0,13.8,30.21,WNW,295,9.0,11.0,27,0.00,,,0.00,Wunderground v.1.15,2013-02-08 21:55:00,
2013-02-08 15:05:00,46.0,11.2,30.21,SSW,213,10.0,12.0,24,0.00,,,0.00,Wunderground v.1.15,2013-02-08 22:05:00,
2013-02-08 15:10:00,46.1,9.3,30.21,North,1,10.0,10.0,22,0.00,,,0.00,Wunderground v.1.15,2013-02-08 22:10:00,
2013-02-08 15:19:00,45.9,10.1,30.22,WSW,242,9.0,9.0,23,0.00,,,0.00,Wunderground v.1.15,2013-02-08 22:19:00,
2013-02-08 15:25:00,45.7,10.0,30.22,West,280,10.0,11.0,23,0.00,,,0.00,Wunderground v.1.15,2013-02-08 22:25:00,
2013-02-08 15:35:00,45.7,9.0,30.22,SW,226,9.0,9.0,22,0.00,,,0.00,Wunderground v.1.15,2013-02-08 22:35:00,
2013-02-08 15:40:00,45.7,6.8,30.22,SW,219,10.0,14.0,20,0.00,,,0.00,Wunderground v.1.15,2013-02-08 22:40:00,
2013-02-08 15:45:00,45.4,10.7,30.22,SSW,198,11.0,14.0,24,0.00,,,0.00,Wunderground v.1.15,2013-02-08 22:45:00,
2013-02-08 15:55:00,45.5,9.8,30.22,NNW,335,9.0,10.0,23,0.00,,,0.00,Wunderground v.1.15,2013-02-08 22:55:00,
2013-02-08 16:05:00,45.5,8.8,30.22,NW,321,8.0,8.0,22,0.00,,,0.00,Wunderground v.1.15,2013-02-08 23:05:00,
2013-02-08 16:10:00,45.4,9.7,30.22,SSW,212,8.0,8.0,23,0.00,,,0.00,Wunderground v.1.15,2013-02-08 23:10:00,
2013-02-08 16:15:00,45.0,8.4,30.23,WSW,245,9.0,10.0,22,0.00,,,0.00,Wunderground v.1.15,2013-02-08 23:15:00,
2013-02-08 16:20:00,44.8,9.2,30.23,SSW,207,9.0,10.0,23,0.00,,,0.00,Wunderground v.1.15,2013-02-08 23:20:00,
2013-02-08 16:25:00,44.6,10.0,30.23,NW,308,10.0,10.0,24,0.00,,,0.00,Wunderground v.1.15,2013-02-08 23:25:00,
2013-02-08 16:35:00,44.3,9.7,30.23,SSW,200,7.0,9.0,24,0.00,,,0.00,Wunderground v.1.15,2013-02-08 23:35:00,
2013-02-08 16:40:00,44.0,8.5,30.23,WNW,284,8.0,8.0,23,0.00,,,0.00,Wunderground v.1.15,2013-02-08 23:40:00,
2013-02-08 16:50:00,43.0,9.5,30.23,SW,233,10.0,14.0,25,0.00,,,0.00,Wunderground v.1.15,2013-02-08 23:50:00,
2013-02-08 16:55:00,42.3,10.6,30.23,SSW,212,9.0,14.0,27,0.00,,,0.00,Wunderground v.1.15,2013-02-08 23:55:00,
2013-02-08 17:05:00,41.4,9.0,30.23,WSW,246,7.0,8.0,26,0.00,,,0.00,Wunderground v.1.15,2013-02-09 00:05:00,
2013-02-08 17:10:00,40.6,9.2,30.23,WSW,249,6.0,6.0,27,0.00,,,0.00,Wunderground v.1.15,2013-02-09 00:10:00,
2013-02-08 17:20:00,40.9,9.4,30.24,SSW,195,8.0,9.0,27,0.00,,,0.00,Wunderground v.1.15,2013-02-09 00:20:00,
2013-02-08 17:25:00,40.3,9.7,30.23,SSW,204,7.0,9.0,28,0.00,,,0.00,Wunderground v.1.15,2013-02-09 00:25:00,
2013-02-08 17:35:00,40.6,9.2,30.24,West,274,6.0,11.0,27,0.00,,,0.00,Wunderground v.1.15,2013-02-09 00:35:00,
2013-02-08 17:40:00,39.9,10.2,30.24,South,173,6.0,6.0,29,0.00,,,0.00,Wunderground v.1.15,2013-02-09 00:40:00,
2013-02-08 17:50:00,39.1,11.0,30.24,West,264,6.0,6.0,31,0.00,,,0.00,Wunderground v.1.15,2013-02-09 00:50:00,
2013-02-08 17:55:00,38.7,12.0,30.24,West,278,6.0,6.0,33,0.00,,,0.00,Wunderground v.1.15,2013-02-09 00:55:00,
2013-02-08 18:05:00,38.1,12.8,30.24,WSW,246,4.0,6.0,35,0.00,,,0.00,Wunderground v.1.15,2013-02-09 01:05:00,
2013-02-08 18:10:00,37.8,13.2,30.24,SSW,210,4.0,5.0,36,0.00,,,0.00,Wunderground v.1.15,2013-02-09 01:10:00,
2013-02-08 18:20:00,37.4,13.5,30.24,South,170,4.0,4.0,37,0.00,,,0.00,Wunderground v.1.15,2013-02-09 01:20:00,
2013-02-08 18:25:00,37.3,13.4,30.24,SW,224,4.0,4.0,37,0.00,,,0.00,Wunderground v.1.15,2013-02-09 01:25:00,
2013-02-08 18:35:00,36.8,14.1,30.25,SW,232,3.0,6.0,39,0.00,,,0.00,Wunderground v.1.15,2013-02-09 01:35:00,
2013-02-08 18:40:00,36.6,14.5,30.25,WSW,242,3.0,3.0,40,0.00,,,0.00,Wunderground v.1.15,2013-02-09 01:40:00,
2013-02-08 18:50:00,35.9,14.5,30.25,SSW,212,2.0,2.0,41,0.00,,,0.00,Wunderground v.1.15,2013-02-09 01:50:00,
2013-02-08 18:55:00,35.7,14.8,30.25,WSW,250,2.0,2.0,42,0.00,,,0.00,Wunderground v.1.15,2013-02-09 01:55:00,
2013-02-08 19:05:00,35.4,14.6,30.25,SSW,203,1.0,2.0,42,0.00,,,0.00,Wunderground v.1.15,2013-02-09 02:05:00,
2013-02-08 19:10:00,35.3,15.0,30.25,SSW,193,2.0,2.0,43,0.00,,,0.00,Wunderground v.1.15,2013-02-09 02:10:00,
2013-02-08 19:20:00,35.1,15.3,30.25,SW,221,3.0,3.0,44,0.00,,,0.00,Wunderground v.1.15,2013-02-09 02:20:00,
2013-02-08 19:25:00,34.9,15.2,30.25,SW,218,2.0,3.0,44,0.00,,,0.00,Wunderground v.1.15,2013-02-09 02:25:00,
2013-02-08 19:35:00,34.7,15.5,30.24,WSW,245,3.0,7.0,45,0.00,,,0.00,Wunderground v.1.15,2013-02-09 02:35:00,
2013-02-08 19:40:00,34.8,16.1,30.24,South,173,3.0,4.0,46,0.00,,,0.00,Wunderground v.1.15,2013-02-09 02:40:00,
2013-02-08 19:50:00,35.1,16.4,30.25,South,191,4.0,5.0,46,0.00,,,0.00,Wunderground v.1.15,2013-02-09 02:50:00,
2013-02-08 19:55:00,35.2,16.5,30.25,SSW,195,3.0,5.0,46,0.00,,,0.00,Wunderground v.1.15,2013-02-09 02:55:00,
2013-02-08 20:05:00,34.9,16.7,30.25,SW,215,2.0,2.0,47,0.00,,,0.00,Wunderground v.1.15,2013-02-09 03:05:00,
2013-02-08 20:10:00,34.6,16.4,30.25,SW,221,1.0,1.0,47,0.00,,,0.00,Wunderground v.1.15,2013-02-09 03:10:00,
2013-02-08 20:20:00,34.2,16.5,30.25,SSW,198,0.0,0.0,48,0.00,,,0.00,Wunderground v.1.15,2013-02-09 03:20:00,
2013-02-08 20:25:00,34.0,16.8,30.25,SSW,200,0.0,0.0,49,0.00,,,0.00,Wunderground v.1.15,2013-02-09 03:25:00,
2013-02-08 20:35:00,33.2,16.5,30.25,SSW,195,0.0,0.0,50,0.00,,,0.00,Wunderground v.1.15,2013-02-09 03:35:00,
2013-02-08 20:40:00,32.6,16.4,30.25,SE,134,0.0,1.0,51,0.00,,,0.00,Wunderground v.1.15,2013-02-09 03:40:00,
2013-02-08 20:50:00,31.9,16.7,30.25,SE,136,1.0,1.0,53,0.00,,,0.00,Wunderground v.1.15,2013-02-09 03:50:00,
2013-02-08 20:55:00,31.6,16.8,30.25,ESE,115,1.0,2.0,54,0.00,,,0.00,Wunderground v.1.15,2013-02-09 03:55:00,
2013-02-08 21:05:00,31.2,16.9,30.25,SSE,149,1.0,2.0,55,0.00,,,0.00,Wunderground v.1.15,2013-02-09 04:05:00,
2013-02-08 21:10:00,31.3,17.4,30.25,SSE,167,1.0,1.0,56,0.00,,,0.00,Wunderground v.1.15,2013-02-09 04:10:00,
2013-02-08 21:20:00,31.5,18.0,30.25,SSW,197,0.0,0.0,57,0.00,,,0.00,Wunderground v.1.15,2013-02-09 04:20:00,
2013-02-08 21:25:00,31.6,18.1,30.25,SSE,166,1.0,1.0,57,0.00,,,0.00,Wunderground v.1.15,2013-02-09 04:25:00,
2013-02-08 21:35:00,31.7,18.2,30.25,SW,236,1.0,1.0,57,0.00,,,0.00,Wunderground v.1.15,2013-02-09 04:35:00,
2013-02-08 21:40:00,31.7,18.2,30.25,SSE,165,1.0,1.0,57,0.00,,,0.00,Wunderground v.1.15,2013-02-09 04:40:00,
2013-02-08 21:50:00,31.8,18.7,30.25,SSW,208,2.0,2.0,58,0.00,,,0.00,Wunderground v.1.15,2013-02-09 04:50:00,
2013-02-08 21:55:00,32.0,18.9,30.25,SW,231,1.0,2.0,58,0.00,,,0.00,Wunderground v.1.15,2013-02-09 04:55:00,
2013-02-08 22:00:00,32.8,22.0,30.25,SW,236,3.0,5.0,64,0.00,,,0.00,Wunderground v.1.15,2013-02-09 05:00:00,
2013-02-08 22:10:00,32.4,25.4,30.25,NNW,328,5.0,5.0,75,0.00,,,0.00,Wunderground v.1.15,2013-02-09 05:10:00,
2013-02-08 22:20:00,31.5,25.7,30.25,SW,215,3.0,3.0,79,0.00,,,0.00,Wunderground v.1.15,2013-02-09 05:20:00,
2013-02-08 22:25:00,31.3,25.8,30.25,SSW,197,3.0,3.0,80,0.00,,,0.00,Wunderground v.1.15,2013-02-09 05:25:00,
2013-02-08 22:35:00,31.0,25.6,30.24,SSW,203,2.0,2.0,80,0.00,,,0.00,Wunderground v.1.15,2013-02-09 05:35:00,
2013-02-08 22:40:00,31.0,25.6,30.25,South,173,2.0,2.0,80,0.00,,,0.00,Wunderground v.1.15,2013-02-09 05:40:00,
2013-02-08 22:50:00,31.0,25.6,30.24,South,191,2.0,2.0,80,0.00,,,0.00,Wunderground v.1.15,2013-02-09 05:50:00,
2013-02-08 22:55:00,30.8,25.4,30.24,South,190,1.0,2.0,80,0.00,,,0.00,Wunderground v.1.15,2013-02-09 05:55:00,
2013-02-08 23:05:00,30.6,25.2,30.23,SE,139,1.0,1.0,80,0.00,,,0.00,Wunderground v.1.15,2013-02-09 06:05:00,
2013-02-08 23:10:00,30.7,25.6,30.23,SE,127,1.0,1.0,81,0.00,,,0.00,Wunderground v.1.15,2013-02-09 06:10:00,
2013-02-08 23:20:00,30.8,25.7,30.23,SSE,164,2.0,5.0,81,0.00,,,0.00,Wunderground v.1.15,2013-02-09 06:20:00,
2013-02-08 23:25:00,30.9,25.8,30.24,SE,130,2.0,5.0,81,0.00,,,0.00,Wunderground v.1.15,2013-02-09 06:25:00,
2013-02-08 23:35:00,30.9,25.5,30.23,South,183,1.0,1.0,80,0.00,,,0.00,Wunderground v.1.15,2013-02-09 06:35:00,
2013-02-08 23:40:00,31.0,25.2,30.23,SSW,205,1.0,1.0,79,0.00,,,0.00,Wunderground v.1.15,2013-02-09 06:40:00,
2013-02-08 23:50:00,31.0,25.2,30.23,SW,225,0.0,0.0,79,0.00,,,0.00,Wunderground v.1.15,2013-02-09 06:50:00,
2013-02-08 23:55:00,30.9,24.8,30.23,SW,214,0.0,0.0,78,0.00,,,0.00,Wunderground v.1.15,2013-02-09 06:55:00,